• In France
  • List of Countries
  • For 7 days
  • Water Temperature
  • Satellite Maps
  • Weather Map
  • Weather Widgets
  • user-avatar
    Login

    Hourly Weather Chadakolob

    Today, 16 October, Tuesday

    Time Temperature Precipitation Wind Pressure Humidity
    00:00 +6°C° 0 mm 1 mps 622 mmHg 66%
    01:00 +6°C° 0 mm 1 mps 622 mmHg 67%
    02:00 +6°C° 0 mm 1 mps 622 mmHg 69%
    03:00 +6°C° 0 mm 1 mps 622 mmHg 72%
    04:00 +6°C° 0 mm 1 mps 623 mmHg 73%
    05:00 +6°C° 0 mm 1 mps 623 mmHg 74%
    06:00 +6°C° 0 mm 1 mps 623 mmHg 75%
    07:00 +8°C° 0 mm 1 mps 623 mmHg 70%
    08:00 +10°C° 0 mm 1 mps 624 mmHg 65%
    09:00 +12°C° 0 mm 1 mps 625 mmHg 59%
    10:00 +13°C° 0 mm 2 mps 626 mmHg 58%
    11:00 +13°C° 0 mm 2 mps 626 mmHg 57%
    12:00 +14°C° 0 mm 2 mps 626 mmHg 57%
    13:00 +14°C° 0 mm 2 mps 626 mmHg 58%
    14:00 +14°C° 0 mm 2 mps 626 mmHg 59%
    15:00 +13°C° 0 mm 2 mps 625 mmHg 62%
    16:00 +12°C° 0 mm 2 mps 625 mmHg 69%
    17:00 +10°C° 0 mm 1 mps 624 mmHg 77%
    18:00 +9°C° 0 mm 1 mps 624 mmHg 85%
    19:00 +8°C° 0 mm 1 mps 623 mmHg 85%
    20:00 +8°C° 0 mm 1 mps 623 mmHg 85%
    21:00 +8°C° 0 mm 1 mps 623 mmHg 85%
    22:00 +7°C° 0 mm 1 mps 623 mmHg 84%
    23:00 +7°C° 0 mm 1 mps 623 mmHg 84%

    Tomorrow, 17 October, Wednesday

    Time Temperature Precipitation Wind Pressure Humidity
    00:00 +7°C° 0 mm 1 mps 623 mmHg 83%
    01:00 +7°C° 0 mm 1 mps 623 mmHg 82%
    02:00 +7°C° 0 mm 1 mps 622 mmHg 81%
    03:00 +6°C° 0 mm 1 mps 622 mmHg 80%
    04:00 +6°C° 0 mm 1 mps 622 mmHg 78%
    05:00 +6°C° 0 mm 1 mps 622 mmHg 77%
    06:00 +6°C° 0 mm 1 mps 622 mmHg 75%
    07:00 +8°C° 0 mm 1 mps 623 mmHg 66%
    08:00 +10°C° 0 mm 1 mps 624 mmHg 57%
    09:00 +12°C° 0 mm 1 mps 624 mmHg 48%
    10:00 +13°C° 0 mm 1 mps 625 mmHg 46%
    11:00 +14°C° 0 mm 1 mps 625 mmHg 44%
    12:00 +15°C° 0 mm 2 mps 625 mmHg 42%
    13:00 +15°C° 0 mm 2 mps 624 mmHg 45%
    14:00 +15°C° 0 mm 2 mps 624 mmHg 47%
    15:00 +15°C° 0 mm 2 mps 624 mmHg 50%
    16:00 +13°C° 0 mm 1 mps 623 mmHg 60%
    17:00 +11°C° 0 mm 1 mps 622 mmHg 71%
    18:00 +9°C° 0 mm 1 mps 621 mmHg 81%
    19:00 +8°C° 0 mm 1 mps 621 mmHg 79%
    20:00 +8°C° 0 mm 1 mps 621 mmHg 78%
    21:00 +8°C° 0 mm 1 mps 621 mmHg 76%
    22:00 +8°C° 0 mm 1 mps 621 mmHg 73%
    23:00 +7°C° 0 mm 1 mps 621 mmHg 70%

    Day after tomorrow, 18 October, Thursday

    Time Temperature Precipitation Wind Pressure Humidity
    00:00 +7°C° 0 mm 1 mps 621 mmHg 66%
    01:00 +7°C° 0 mm 1 mps 621 mmHg 63%
    02:00 +7°C° 0 mm 1 mps 620 mmHg 59%
    03:00 +7°C° 0 mm 1 mps 620 mmHg 55%
    04:00 +7°C° 0 mm 1 mps 620 mmHg 50%
    05:00 +7°C° 0 mm 1 mps 620 mmHg 44%
    06:00 +7°C° 0 mm 1 mps 620 mmHg 38%
    07:00 +9°C° 0 mm 1 mps 621 mmHg 33%
    08:00 +11°C° 0 mm 1 mps 622 mmHg 28%
    09:00 +14°C° 0 mm 1 mps 623 mmHg 23%
    10:00 +15°C° 0 mm 1 mps 623 mmHg 24%
    11:00 +16°C° 0 mm 1 mps 623 mmHg 24%
    12:00 +17°C° 0 mm 2 mps 624 mmHg 24%
    13:00 +16°C° 0 mm 2 mps 623 mmHg 27%
    14:00 +16°C° 0 mm 2 mps 623 mmHg 30%
    15:00 +16°C° 0 mm 2 mps 623 mmHg 33%
    16:00 +14°C° 0 mm 1 mps 622 mmHg 43%
    17:00 +11°C° 0 mm 1 mps 621 mmHg 54%
    18:00 +9°C° 0 mm 1 mps 620 mmHg 64%
    19:00 +9°C° 0 mm 1 mps 621 mmHg 61%
    20:00 +8°C° 0 mm 1 mps 621 mmHg 58%
    21:00 +8°C° 0 mm 1 mps 621 mmHg 55%
    22:00 +8°C° 0 mm 1 mps 621 mmHg 55%
    23:00 +8°C° 0 mm 1 mps 620 mmHg 55%

    19 October, Friday

    Time Temperature Precipitation Wind Pressure Humidity
    00:00 +7°C° 0 mm 1 mps 620 mmHg 55%
    01:00 +6°C° 0 mm 2 mps 620 mmHg 57%
    02:00 +6°C° 0 mm 2 mps 620 mmHg 59%
    03:00 +6°C° 0 mm 2 mps 620 mmHg 61%
    04:00 +6°C° 0 mm 2 mps 620 mmHg 61%
    05:00 +5°C° 0 mm 2 mps 620 mmHg 61%
    06:00 +5°C° 0 mm 2 mps 620 mmHg 61%
    07:00 +8°C° 0 mm 2 mps 621 mmHg 53%
    08:00 +11°C° 0 mm 1 mps 622 mmHg 46%
    09:00 +13°C° 0 mm 1 mps 623 mmHg 38%
    10:00 +15°C° 0 mm 1 mps 623 mmHg 36%
    11:00 +16°C° 0 mm 1 mps 623 mmHg 33%
    12:00 +18°C° 0 mm 1 mps 623 mmHg 30%
    13:00 +18°C° 0 mm 1 mps 623 mmHg 33%
    14:00 +18°C° 0 mm 1 mps 622 mmHg 35%
    15:00 +16°C° 0 mm 1 mps 622 mmHg 37%
    16:00 +14°C° 0 mm 1 mps 621 mmHg 46%
    17:00 +12°C° 0 mm 1 mps 621 mmHg 55%
    18:00 +10°C° 0 mm 1 mps 620 mmHg 65%
    19:00 +9°C° 0 mm 1 mps 620 mmHg 66%
    20:00 +9°C° 0 mm 1 mps 620 mmHg 67%
    21:00 +8°C° 0 mm 2 mps 620 mmHg 69%
    22:00 +7°C° 0 mm 2 mps 619 mmHg 70%
    23:00 +7°C° 0 mm 2 mps 619 mmHg 72%

    20 October, Saturday

    Time Temperature Precipitation Wind Pressure Humidity
    00:00 +7°C° 0 mm 2 mps 619 mmHg 73%
    01:00 +7°C° 0 mm 2 mps 619 mmHg 72%
    02:00 +6°C° 0 mm 2 mps 618 mmHg 70%
    03:00 +6°C° 0 mm 2 mps 618 mmHg 68%
    04:00 +6°C° 0 mm 2 mps 618 mmHg 64%
    05:00 +6°C° 0 mm 2 mps 618 mmHg 60%
    06:00 +6°C° 0 mm 2 mps 618 mmHg 56%
    07:00 +9°C° 0 mm 2 mps 619 mmHg 49%
    08:00 +12°C° 0 mm 1 mps 620 mmHg 43%
    09:00 +15°C° 0 mm 1 mps 621 mmHg 36%
    10:00 +16°C° 0 mm 1 mps 621 mmHg 34%
    11:00 +18°C° 0 mm 1 mps 621 mmHg 32%
    12:00 +18°C° 0 mm 2 mps 621 mmHg 30%
    13:00 +18°C° 0 mm 2 mps 621 mmHg 31%
    14:00 +18°C° 0 mm 1 mps 621 mmHg 33%
    15:00 +18°C° 0 mm 1 mps 621 mmHg 34%
    16:00 +15°C° 0 mm 1 mps 620 mmHg 41%
    17:00 +13°C° 0 mm 1 mps 619 mmHg 47%
    18:00 +11°C° 0 mm 1 mps 618 mmHg 54%
    19:00 +11°C° 0 mm 1 mps 619 mmHg 54%
    20:00 +11°C° 0 mm 1 mps 619 mmHg 53%
    21:00 +10°C° 0 mm 1 mps 619 mmHg 53%
    22:00 +10°C° 0 mm 1 mps 618 mmHg 54%
    23:00 +10°C° 0 mm 1 mps 618 mmHg 56%

    21 October, Sunday

    Time Temperature Precipitation Wind Pressure Humidity
    00:00 +10°C° 0 mm 1 mps 618 mmHg 57%
    01:00 +9°C° 0 mm 1 mps 618 mmHg 58%
    02:00 +8°C° 0 mm 2 mps 618 mmHg 59%
    03:00 +8°C° 0 mm 2 mps 618 mmHg 59%
    04:00 +8°C° 0 mm 2 mps 618 mmHg 58%
    05:00 +9°C° 0 mm 1 mps 618 mmHg 57%
    06:00 +9°C° 0 mm 1 mps 618 mmHg 56%
    07:00 +11°C° 0 mm 1 mps 619 mmHg 53%
    08:00 +13°C° 0 mm 1 mps 619 mmHg 50%
    09:00 +14°C° 0 mm 1 mps 620 mmHg 47%
    10:00 +15°C° 0 mm 2 mps 620 mmHg 45%
    11:00 +16°C° 0 mm 2 mps 620 mmHg 43%
    12:00 +17°C° 0 mm 2 mps 620 mmHg 41%
    13:00 +17°C° 0 mm 2 mps 620 mmHg 42%
    14:00 +17°C° 0 mm 2 mps 619 mmHg 43%
    15:00 +16°C° 0 mm 2 mps 619 mmHg 45%
    16:00 +15°C° 0 mm 1 mps 619 mmHg 51%
    17:00 +13°C° 0 mm 1 mps 618 mmHg 57%
    18:00 +10°C° 0 mm 0 mps 618 mmHg 63%
    19:00 +11°C° 0 mm 1 mps 618 mmHg 63%
    20:00 +11°C° 0 mm 1 mps 618 mmHg 63%
    21:00 +11°C° 0 mm 1 mps 618 mmHg 63%
    22:00 +10°C° 0 mm 1 mps 617 mmHg 63%
    23:00 +10°C° 0 mm 1 mps 617 mmHg 64%
    Show more